[[{"header":{"parameterUnit":"m.s-1","parameterCategory":1,"la1":30.2991,"la2":30.254,"lo1":-89.0895,"lo2":-89.0444,"dy":0.0017,"dx":0.0017,"nx":28,"ny":28,"refTime":"2024-04-29T03:00:00:Z","depth":0,"parameterNumber":2,"parameterNumberName":"U-component_of_WINDS"},"data":[0,0,0,0,0,0,0,0,0,0,0,0,0,0,0,0,0,0,0,0,0,0,0,0,0,0,0,0,0,0,0,0,0,0,0,0,0,0,0,0,0,0,0,0,0,0,0,0,0,0,0,0,0,0,0,0,0,0,-5.4651,-5.4653,0,-5.4821,-5.4823,-5.4825,-5.4856,-5.4855,-5.4854,-5.4852,-5.5025,-5.5031,-5.5037,0,0,0,0,0,0,0,0,0,0,0,0,0,-5.4352,-5.4357,-5.4651,-5.4653,-5.4655,-5.4821,-5.4823,-5.4826,-5.4857,-5.4855,-5.4853,-5.4852,-5.5023,-5.503,-5.5037,0,0,0,0,0,0,0,0,0,0,0,0,0,-5.4498,-5.4359,-5.465,-5.4691,-5.4696,-5.4821,-5.4823,-5.4826,-5.4857,-5.4855,-5.4853,-5.4851,-5.5021,-5.503,-5.5038,-5.5135,0,0,-5.5065,-5.5069,0,0,0,0,0,0,0,0,-5.4489,-5.4509,-5.4682,-5.4688,-5.4694,-5.4816,-5.4781,-5.493,-5.4857,-5.4796,-5.4852,-5.485,-5.4957,-5.4971,-5.5008,-5.5143,-5.515,-5.5066,-5.5072,-5.5075,-5.5078,0,0,0,0,0,0,0,-5.4479,-5.4502,-5.4718,-5.4685,-5.4692,-5.47,-5.4718,-5.481,-5.4886,-5.4801,-5.4804,-5.4823,-5.496,-5.4999,-5.5012,-5.5153,-5.5066,-5.5074,-5.5079,-5.5083,-5.5376,-5.5378,0,0,0,0,0,0,-5.4462,-5.4493,-5.4713,-5.4723,-5.4585,-5.4707,-5.4728,-5.4779,-5.4885,-5.4899,-5.4825,-5.4824,-5.4985,-5.5001,-5.5018,-5.5137,-5.5075,-5.5084,-5.5089,-5.5374,-5.5377,-5.5379,0,0,0,0,0,0,-5.4456,-5.4482,-5.4706,-5.4609,-5.4638,-5.4714,-5.4771,-5.4783,-5.4822,-5.4903,-5.4917,-5.4851,-5.4984,-5.5006,-5.5106,-5.5143,-5.5088,-5.5096,-5.5371,-5.5374,-5.5378,-5.5376,0,0,0,0,0,0,-5.4447,-5.4479,-5.4516,-5.461,-5.4643,-5.479,-5.4774,-5.4788,-5.4837,-5.4838,-5.4931,-5.4945,-5.4984,-5.5092,-5.5114,-5.5155,-5.5102,-5.5367,-5.5372,-5.5377,-5.5373,-5.5379,-5.5384,0,0,0,0,0,-5.4436,-5.4508,-5.4518,-5.4544,-5.4691,-5.4792,-5.4812,-5.4856,-5.484,-5.4878,-5.4931,-5.4942,-5.5137,-5.5102,-5.5127,-5.5171,-5.5365,-5.5371,-5.5376,-5.537,-5.5378,-5.5384,0,0,0,0,0,0,-5.4416,-5.4521,-5.4533,-5.4637,-5.4706,-5.4798,-5.4846,-5.4863,-5.4936,-5.4934,-5.4985,-5.5006,-5.5103,-5.5148,-5.5107,-5.527,-5.525,-5.5261,-5.5237,-5.5245,-5.525,-5.5236,-5.511,0,0,0,0,0,-5.4424,-5.4498,-5.4586,-5.467,-5.4704,-5.4769,-5.4815,-5.4844,-5.4916,-5.4945,-5.5005,-5.5075,-5.5152,-5.5201,-5.5277,-5.5381,-5.5401,-5.5424,-5.5429,-5.5434,-5.5441,-5.55,-5.551,-5.5398,-5.5398,-5.5397,0,0,-5.4441,-5.4507,-5.455,-5.4667,-5.4724,-5.4798,-5.4793,-5.4872,-5.4928,-5.4957,-5.5054,-5.5101,-5.5183,-5.5285,-5.5334,-5.5325,-5.5478,-5.5441,-5.5444,-5.5449,-5.5506,-5.5517,-5.5526,-5.5401,-5.5401,-5.54,0,0,-5.4508,-5.4567,-5.4643,-5.47,-5.4786,-5.483,-5.4848,-5.4939,-5.4971,-5.507,-5.5093,-5.5161,-5.5293,-5.535,-5.5396,-5.5489,-5.5501,-5.5513,-5.5541,-5.5597,-5.5606,-5.5614,-5.5646,-5.5657,-5.5521,-5.5521,-5.5521,0,-5.4518,-5.4632,-5.468,-5.4759,-5.4809,-5.4841,-5.4918,-5.4971,-5.5077,-5.5111,-5.5101,-5.5268,-5.5325,-5.5441,-5.5464,-5.5501,-5.5523,-5.55,-5.5601,-5.561,-5.5618,-5.5649,-5.5661,-5.5521,-5.5521,-5.5521,-5.5521,0,-5.4638,-5.4717,-5.4768,-5.487,-5.4927,-5.5005,-5.5065,-5.5117,-5.5142,-5.5186,-5.5287,-5.5358,-5.5448,-5.5479,-5.5503,-5.5599,-5.5591,-5.5591,-5.5571,-5.5628,-5.5658,-5.567,-5.5522,-5.5522,-5.5522,-5.5522,0,0,-5.4695,-5.4825,-5.4842,-5.4889,-5.4988,-5.5049,-5.5129,-5.5218,-5.5261,-5.5334,-5.5402,-5.5514,-5.5515,-5.5568,-5.5599,-5.5649,-5.5717,-5.5643,-5.5646,-5.5652,-5.5825,-5.5822,-5.5835,-5.5727,-5.573,-5.5732,-5.5818,0,-5.4773,-5.4915,-5.4962,-5.508,-5.5153,-5.5186,-5.5255,-5.5323,-5.5368,-5.5437,-5.5487,-5.5565,-5.5561,-5.5593,-5.5644,-5.5697,-5.5751,-5.5692,-5.5789,-5.5792,-5.5764,-5.5851,-5.5848,-5.5926,-5.583,-5.5832,-5.5833,0,-5.4881,-5.4957,-5.5082,-5.5172,-5.5205,-5.5266,-5.5352,-5.5418,-5.5496,-5.5525,-5.5586,-5.5614,-5.5699,-5.5677,-5.5794,-5.5752,-5.5796,-5.5828,-5.5833,-5.5841,-5.5813,-5.5859,-5.5952,-5.5962,-5.5852,-5.5851,-5.5849,0,-5.4907,-5.5041,-5.5133,-5.5172,-5.528,-5.5323,-5.537,-5.5446,-5.5497,-5.5573,-5.5606,-5.5691,-5.5736,-5.5801,-5.5852,-5.5832,-5.5964,-5.5947,-5.599,-5.5988,-5.6013,-5.601,-5.6111,-5.6046,-5.6046,-5.6045,-5.6045,0,-5.4988,-5.5062,-5.5146,-5.5202,-5.5288,-5.5342,-5.5425,-5.5474,-5.5542,-5.5609,-5.5643,-5.5705,-5.577,-5.584,-5.5881,-5.5971,-5.5992,-5.6017,-5.6027,-5.6013,-5.6009,-5.6039,-5.6034,-5.6049,-5.6048,-5.6047,-5.6047,0,-5.5029,-5.5088,-5.5191,-5.5286,-5.5311,-5.537,-5.5451,-5.5507,-5.5555,-5.5638,-5.5661,-5.5736,-5.5821,-5.5879,-5.5988,-5.6015,-5.6112,-5.6122,-5.6085,-5.6089,-5.6128,-5.6123,-5.625,-5.6269,-5.6192,-5.6193,-5.6194,0,-5.5075,-5.5134,-5.5235,-5.5282,-5.5329,-5.5405,-5.5458,-5.5514,-5.5568,-5.5662,-5.5707,-5.5795,-5.5867,-5.6002,-5.6065,-5.6149,-5.616,-5.6199,-5.6172,-5.6156,-5.6158,-5.6152,-5.6158,-5.6201,-5.6202,-5.6202,-5.6203,0,-5.5149,-5.5176,-5.525,-5.5336,-5.5398,-5.5467,-5.5537,-5.5574,-5.5643,-5.5702,-5.5789,-5.5846,-5.5958,-5.6044,-5.6134,-5.6183,-5.6204,-5.6211,-5.6225,-5.621,-5.6185,-5.6197,-5.6093,-5.6207,-5.6206,-5.6206,-5.6206,-5.6206,-5.5193,-5.5247,-5.5326,-5.5408,-5.5468,-5.5533,-5.559,-5.5646,-5.572,-5.5815,-5.5845,-5.5935,-5.6014,-5.6137,-5.6188,-5.626,-5.6256,-5.6277,-5.6282,-5.6285,-5.6284,-5.6176,-5.6277,-5.6277,-5.6277,-5.6277,-5.6277,0,-5.5267,-5.5321,-5.5396,-5.5493,-5.5558,-5.5575,-5.5654,-5.5706,-5.5785,-5.5857,-5.5929,-5.6029,-5.6114,-5.6185,-5.6273,-5.6317,-5.6329,-5.6337,-5.6333,-5.6344,-5.6283,-5.6261,-5.6326,-5.6326,-5.6326,-5.6326,-5.6326,-5.6326,-5.5313,-5.5404,-5.5441,-5.5562,-5.5616,-5.5705,-5.5748,-5.5809,-5.5866,-5.5977,-5.6048,-5.6094,-5.6166,-5.6259,-5.6338,-5.6357,-5.6386,-5.6392,-5.6413,-5.6354,-5.6348,-5.6343,-5.6322,-5.6399,-5.6399,-5.6468,-5.6469,-5.6469]},{"header":{"parameterUnit":"m.s-1","parameterCategory":1,"la1":30.2991,"la2":30.254,"lo1":-89.0895,"lo2":-89.0444,"dy":0.0017,"dx":0.0017,"nx":28,"ny":28,"refTime":"2024-04-29T03:00:00:Z","depth":0,"parameterNumber":3,"parameterNumberName":"V-component_of_WINDS"},"data":[0,0,0,0,0,0,0,0,0,0,0,0,0,0,0,0,0,0,0,0,0,0,0,0,0,0,0,0,0,0,0,0,0,0,0,0,0,0,0,0,0,0,0,0,0,0,0,0,0,0,0,0,0,0,0,0,0,0,5.2429,5.2428,0,5.2381,5.2381,5.238,5.2351,5.2351,5.2351,5.2351,5.2296,5.2295,5.2294,0,0,0,0,0,0,0,0,0,0,0,0,0,5.2488,5.2487,5.2429,5.2428,5.2428,5.2382,5.2381,5.238,5.2351,5.2351,5.2351,5.2351,5.2297,5.2295,5.2293,0,0,0,0,0,0,0,0,0,0,0,0,0,5.2454,5.2487,5.2429,5.2408,5.2405,5.2382,5.2381,5.238,5.2352,5.2351,5.2351,5.2351,5.2297,5.2295,5.2293,5.2285,0,0,5.2287,5.2286,0,0,0,0,0,0,0,0,5.2456,5.2452,5.2411,5.2409,5.2407,5.2372,5.2382,5.2348,5.2352,5.2372,5.2351,5.2351,5.2321,5.2317,5.2309,5.2282,5.228,5.2287,5.2286,5.2285,5.2284,0,0,0,0,0,0,0,5.2458,5.2453,5.241,5.2411,5.2408,5.2399,5.2394,5.2375,5.2348,5.237,5.2368,5.2363,5.232,5.2311,5.2307,5.2279,5.2287,5.2285,5.2284,5.2283,5.2243,5.2243,0,0,0,0,0,0,5.2465,5.2456,5.2411,5.2408,5.2431,5.2398,5.2392,5.2383,5.2348,5.2343,5.2363,5.2362,5.2314,5.2309,5.2305,5.2293,5.2285,5.2283,5.2282,5.2243,5.2243,5.2243,0,0,0,0,0,0,5.2466,5.2461,5.2413,5.2431,5.2425,5.2397,5.2387,5.2383,5.2373,5.2343,5.2337,5.2359,5.2314,5.2308,5.2291,5.2291,5.2282,5.228,5.2243,5.2243,5.2243,5.2269,0,0,0,0,0,0,5.2468,5.2462,5.246,5.2432,5.2424,5.2401,5.2387,5.2382,5.2371,5.2369,5.2338,5.2332,5.2313,5.2294,5.2289,5.2288,5.2279,5.2243,5.2243,5.2243,5.2268,5.227,5.2272,0,0,0,0,0,5.247,5.2467,5.246,5.2454,5.2421,5.2401,5.2397,5.2376,5.2371,5.2368,5.2348,5.2333,5.2292,5.2292,5.2286,5.2285,5.2243,5.2243,5.2243,5.2267,5.227,5.2272,0,0,0,0,0,0,5.2493,5.2463,5.2454,5.2443,5.2425,5.2397,5.2392,5.238,5.2362,5.236,5.2334,5.2327,5.2312,5.2296,5.2298,5.2275,5.2265,5.2265,5.2286,5.2288,5.229,5.2293,5.2277,0,0,0,0,0,5.2498,5.2486,5.2459,5.2451,5.2443,5.2419,5.241,5.2396,5.2376,5.2368,5.2347,5.2326,5.2309,5.2297,5.2279,5.2266,5.2258,5.2262,5.2264,5.2265,5.2265,5.2256,5.2258,5.2244,5.2244,5.2244,0,0,5.2505,5.2487,5.2481,5.2456,5.244,5.2428,5.2413,5.24,5.239,5.2365,5.2348,5.2332,5.2307,5.2292,5.2284,5.2279,5.2267,5.2266,5.2267,5.2266,5.2257,5.2258,5.2259,5.2245,5.2245,5.2245,0,0,5.2512,5.2498,5.249,5.2476,5.2454,5.2438,5.2436,5.241,5.2399,5.2382,5.2364,5.235,5.232,5.2303,5.2291,5.2293,5.2279,5.2288,5.2298,5.229,5.2291,5.2292,5.2292,5.2293,5.2287,5.2287,5.2288,0,5.2524,5.2506,5.2487,5.2476,5.2465,5.2444,5.2435,5.2422,5.2394,5.2386,5.2381,5.2344,5.2325,5.2306,5.2307,5.2297,5.2293,5.2291,5.2293,5.2293,5.2294,5.2294,5.2294,5.2289,5.2289,5.2288,5.2288,0,5.2521,5.2509,5.2505,5.2482,5.247,5.246,5.2438,5.2428,5.2416,5.24,5.2383,5.236,5.2338,5.2332,5.2318,5.2311,5.2308,5.2298,5.2288,5.2297,5.2296,5.2296,5.2291,5.229,5.229,5.2289,0,0,5.2541,5.2509,5.2507,5.2497,5.2472,5.2461,5.2449,5.243,5.2422,5.2403,5.2392,5.2368,5.2359,5.2345,5.2329,5.2323,5.2326,5.2313,5.2312,5.2316,5.2316,5.2324,5.2324,5.2317,5.2317,5.2316,5.2318,0,5.2545,5.2526,5.2508,5.2495,5.2483,5.2463,5.2453,5.2436,5.2421,5.2407,5.239,5.2373,5.2363,5.2354,5.2347,5.2327,5.2325,5.2327,5.2304,5.2304,5.2311,5.2324,5.2332,5.2334,5.2318,5.2318,5.2318,0,5.2546,5.2532,5.2517,5.2494,5.2488,5.248,5.2461,5.2448,5.2428,5.2417,5.2402,5.2387,5.2372,5.2364,5.2343,5.2344,5.2334,5.2323,5.2323,5.2319,5.2311,5.2321,5.2335,5.2335,5.2317,5.2317,5.2317,0,5.2563,5.2539,5.2527,5.2519,5.2491,5.2486,5.2473,5.2453,5.2442,5.2425,5.2417,5.2397,5.2386,5.2371,5.2349,5.2346,5.233,5.232,5.232,5.2321,5.2317,5.2318,5.2329,5.2311,5.2311,5.2311,5.2311,0,5.2568,5.256,5.2534,5.2527,5.2517,5.2497,5.2487,5.2473,5.2455,5.2444,5.2425,5.2414,5.2387,5.2373,5.2356,5.2341,5.2336,5.2326,5.2321,5.2327,5.2329,5.232,5.2319,5.2311,5.2311,5.2311,5.2311,0,5.2585,5.2567,5.2553,5.2529,5.2523,5.2517,5.2495,5.2487,5.2471,5.2457,5.2452,5.2427,5.241,5.2387,5.2361,5.235,5.2337,5.233,5.2344,5.2342,5.2342,5.2343,5.2349,5.2348,5.2331,5.2331,5.2331,0,5.259,5.2583,5.2559,5.2551,5.2541,5.2528,5.2518,5.2497,5.2487,5.2464,5.2458,5.2439,5.2423,5.2395,5.2373,5.2353,5.2346,5.2349,5.2342,5.2349,5.2346,5.2346,5.2345,5.2351,5.2351,5.2351,5.2352,0,5.26,5.2592,5.2579,5.2563,5.2552,5.2538,5.2523,5.2517,5.2493,5.2482,5.2465,5.2453,5.2428,5.2409,5.2387,5.2372,5.2357,5.2354,5.2353,5.2359,5.2368,5.2363,5.2349,5.2354,5.2354,5.2354,5.2353,5.2353,5.2611,5.2605,5.2587,5.2573,5.256,5.2547,5.2538,5.2522,5.2509,5.2488,5.2476,5.2459,5.2438,5.2408,5.2394,5.2379,5.2373,5.2372,5.2371,5.2371,5.2373,5.2371,5.2375,5.2374,5.2374,5.2374,5.2374,0,5.262,5.2609,5.2596,5.2577,5.2566,5.2556,5.2538,5.2529,5.2515,5.2498,5.2484,5.2464,5.2446,5.2423,5.2403,5.2396,5.2389,5.2391,5.2391,5.2388,5.2379,5.2382,5.2397,5.2397,5.2397,5.2397,5.2397,5.2397,5.2624,5.2613,5.2603,5.2585,5.2573,5.2558,5.2549,5.2536,5.2523,5.2502,5.2488,5.2474,5.2455,5.2433,5.2416,5.2409,5.2403,5.2407,5.2399,5.2391,5.2389,5.2387,5.2389,5.2406,5.2406,5.2409,5.2409,5.2409]}]]